Weather in Leninsky

Russia / Oryol Oblast     52°38′18″N   37°14′20″E
temp.,
°C
wind,
m/s
gust,
m/s
humid.,
%
clouds,
%
prec.,
mm/h
press.,
hPa
HPBL,
m
12 april, mon
mon1200:00+6ne41266100 0.0 1030261
03:00+5ne51369100 0.0 1030286
06:00+5ene61475100 0.1 1029379
09:00+7e61083100 0.4 1028392
12:00+12e6973100 0.0 1027513
15:00+17e71059100 0.0 1025838
18:00+16e5105995 0.0 1024314
21:00+13ese515636 0.0 1024297
13 april, tue
tue1300:00+11ese513728 0.0 1024224
03:00+9se41079100 0.0 1025161
06:00+8ese487956 0.0 1025120
09:00+13se5106056 0.0 1025318
12:00+18se694414 0.0 10241070
15:00+20se7103471 0.0 10231745
18:00+18se611372 0.0 1022435
21:00+13ese412545 0.0 1022233
14 april, wed
wed1400:00+11se3863100 0.0 1022134
03:00+10se4106797 0.0 1022190
06:00+8ese477132 0.0 1021111
09:00+13se595369 0.0 1021387
12:00+17se793797 0.0 10191043
15:00+19sse7827100 0.0 10181886
18:00+17se4736100 0.0 1017220
21:00+14se3647100 0.0 1018105
15 april, thu
thu1500:00+12wnw237489 0.0 101732
03:00+10nne3383100 0.0 101840
06:00+9ne3377100 0.0 101734
09:00+13ese3453100 0.0 1017224
12:00+17ese4540100 0.0 1016859
15:00+19ese4532100 0.0 10142353
18:00+17e3541100 0.0 1013116
21:00+14ese3555100 0.0 101369
16 april, fri
fri1600:00+13e3558100 0.0 101279
03:00+11ese3362100 0.0 101248
06:00+11ese4878100 0.2 1012233
09:00+11ese358099 0.2 1013241
12:00+15ese456096 0.7 10131198
15:00+14e2365100 2.1 1013312
18:00+12ene5785100 1.9 1014375
21:00+10ene4794100 4.8 1015335